User: anonymous   Login
Location: Morehead State University
(38.1872°N, 83.4339°W)
Time: 02:53:36
(UTC-04:00)
Language:

Okean 2 - Orbit

View from above orbital plane
View from above orbital plane
View from above satellite
View from above satellite

Ground track
Ground track

The orbit data is extracted from the following two-line orbital elements,

1 20510U 90018A   18113.82756157 +.00000441 +00000-0 +34022-4 0  9995
2 20510 082.5173 233.1175 0012566 020.3128 093.6015 14.99131652527980
Epoch (UTC): 23 April 2018 19:51:41
Eccentricity: 0.0012566
inclination: 82.5173°
perigee height: 561 km
apogee height: 578 km
right ascension of ascending node: 233.1175°
argument of perigee: 20.3128°
revolutions per day: 14.99131652
mean anomaly at epoch: 93.6015°
orbit number at epoch: 52798

The dashed part of the orbit path shows where the satellite is in the earth's shadow,  

DLR